Theta_e
303 302 302 302 302 302 302 302 302 301 301 301 302 303 302 303 301 300 297 301 295 291 293 294 294 291 292 291 288 292 290 291 292 286 287 287 286 288 286 288 287 286 285 285 287 283 281 291 292 286 293 298 298 299
302 302 302 301 301 302 302 302 302 301 301 302 302 302 303 302 301 301 296 299 297 290 291 297 297 298 296 295 292 292 291 291 293 289 289 288 286 288 287 282 292 285 290 286 287 288 297 298 298 300 301 298 299 300
302 301 301 301 302 301 300 300 301 301 301 301 301 302 302 302 302 301 300 297 296 291 291 293 293 298 300 299 300 289 293 293 293 296 290 287 283 289 283 286 287 291 294 290 289 293 296 297 298 300 299 298 300 300
301 301 301 301 300 300 300 301 301 301 301 300 301 301 301 301 301 302 299 299 296 292 286 291 298 296 299 299 299 298 297 297 296 293 289 287 284 291 287 288 288 291 291 290 291 294 295 297 298 299 299 300 299 300
301 301 301 301 300 300 300 300 300 300 300 301 301 302 301 301 302 302 301 300 299 290 286 289 295 298 298 299 297 298 296 294 291 287 285 285 289 288 290 290 288 292 290 288 288 294 294 296 300 301 299 299 297 296
301 301 301 300 300 300 300 300 300 300 300 300 301 300 301 300 300 298 293 299 299 297 289 285 296 294 296 296 296 295 296 294 291 287 285 288 293 289 287 286 293 295 296 294 290 294 294 294 297 297 295 295 297 296
300 301 301 301 301 300 299 300 300 300 300 300 300 300 300 300 300 294 292 297 300 300 289 285 289 295 295 297 297 296 297 293 291 289 287 289 289 291 288 286 293 294 293 296 298 297 293 294 293 297 297 295 296 296
300 299 300 299 298 299 299 299 299 299 300 300 300 300 300 300 300 295 299 300 301 294 291 283 287 291 297 295 294 299 292 291 290 290 291 290 292 291 285 292 292 294 296 297 297 299 298 298 297 297 297 295 292 291
299 299 299 299 298 297 298 299 299 299 300 299 299 300 299 296 292 295 300 300 301 293 286 285 285 285 297 295 296 294 294 287 294 288 290 290 289 286 289 290 292 294 295 296 298 298 297 296 296 296 295 293 291 290
299 299 299 299 298 298 298 299 299 299 299 299 298 295 289 295 298 298 297 290 289 289 289 285 291 286 293 291 291 292 293 290 287 290 290 289 290 292 294 295 297 298 300 300 296 296 297 296 295 294 293 293 292 290
299 299 299 300 300 299 299 299 298 298 298 297 294 291 297 297 294 290 287 287 288 285 289 288 289 288 296 287 288 293 289 290 286 290 290 290 288 291 296 298 300 301 301 300 300 300 299 298 296 294 293 294 293 292
297 298 298 298 300 299 299 298 298 298 297 295 294 297 296 292 289 284 284 287 284 284 291 288 289 291 291 294 289 290 287 288 283 295 290 287 290 295 297 299 301 302 302 301 299 297 297 297 296 295 294 295 295 293
297 297 298 298 299 298 297 297 298 298 298 297 292 288 288 286 279 279 278 282 285 290 291 293 290 293 294 293 290 290 286 288 296 290 286 288 294 297 298 299 300 302 302 300 297 297 297 297 297 297 295 296 295 290
297 297 297 298 297 297 297 297 298 298 296 289 285 280 282 281 283 285 286 288 292 293 291 291 290 291 294 291 292 285 290 293 285 284 284 291 294 297 299 300 299 299 301 298 297 297 296 296 296 296 296 295 293 290
297 297 297 297 297 297 298 298 298 299 294 286 286 279 282 287 290 290 292 293 293 293 291 291 291 293 291 289 290 289 286 283 286 285 290 293 297 299 299 299 299 300 298 297 297 297 296 296 296 296 297 296 295 293
297 297 297 296 297 297 297 298 298 297 291 287 284 282 287 286 287 290 289 289 294 292 292 293 289 288 289 289 286 284 283 282 289 292 294 297 298 299 299 300 301 300 298 297 297 297 297 297 296 297 298 297 296 294
296 296 296 297 296 296 297 295 292 288 287 284 284 289 287 287 286 288 290 290 296 290 287 289 284 285 293 287 286 293 288 291 294 294 296 299 298 299 300 302 300 299 299 298 298 297 298 298 298 297 296 297 297 296
295 298 296 296 296 296 297 294 290 288 283 287 285 287 289 290 288 289 291 293 291 290 290 287 290 286 286 284 288 292 294 296 297 296 297 299 300 300 302 302 301 300 299 299 298 298 298 297 296 296 297 297 297 297
295 297 296 296 296 294 290 289 290 284 286 288 289 290 290 290 292 292 292 293 293 293 291 290 286 285 288 295 293 294 295 295 294 295 297 299 300 300 300 303 301 300 300 299 299 298 298 298 297 296 297 297 296 296
295 295 295 296 296 289 285 287 291 287 284 288 290 289 289 289 291 292 292 292 291 290 287 285 286 290 293 297 298 297 298 298 295 294 294 296 299 300 300 302 304 302 301 301 299 294 298 298 298 297 296 295 296 295
294 295 295 296 293 290 288 286 285 286 287 287 290 290 288 291 290 289 289 292 289 287 286 290 291 293 297 298 300 299 299 298 296 295 295 295 298 299 300 302 305 305 301 300 299 298 296 297 298 298 297 296 296 297
296 295 295 295 290 288 286 289 286 287 286 287 288 289 287 286 288 289 292 289 288 289 291 291 293 294 294 295 296 298 298 298 298 296 293 295 297 298 299 301 303 303 301 300 300 299 298 298 299 299 299 298 297 296
294 295 293 289 284 284 284 290 284 285 281 285 287 284 286 287 290 294 287 290 291 295 295 294 295 296 295 296 297 297 297 297 296 296 297 297 299 300 301 303 305 304 302 301 302 301 300 291 297 299 300 300 299 298
294 289 284 284 284 282 287 284 287 284 284 283 283 282 285 288 292 287 285 290 294 296 295 295 295 294 295 295 294 294 296 297 297 298 298 298 298 299 302 303 306 305 303 304 304 303 302 300 294 301 300 300 300 299
284 283 285 281 286 282 281 282 283 283 281 284 282 283 286 290 285 284 285 289 295 294 297 298 296 295 293 294 294 295 297 297 296 296 298 300 299 300 301 305 307 306 306 304 303 303 302 302 301 301 300 300 300 300
279 284 281 283 283 281 282 280 281 282 284 282 283 288 289 286 282 283 289 292 293 294 294 295 297 295 294 295 295 295 297 299 298 297 299 300 300 300 300 302 303 304 306 307 305 303 302 302 301 300 300 298 289 300
279 281 286 290 288 287 285 286 286 284 281 281 285 285 286 282 283 288 288 291 293 296 297 297 298 297 296 296 297 299 300 300 299 299 302 302 303 304 303 304 305 307 307 307 307 305 303 302 302 302 302 303 303 302
285 285 282 285 286 286 282 283 283 282 284 289 287 284 283 285 285 289 291 295 296 298 298 298 299 301 301 300 300 299 299 300 302 305 305 304 304 304 305 307 311 289 309 309 308 307 306 305 304 303 303 304 304 304
284 288 287 283 284 285 284 283 284 287 289 289 286 286 286 289 291 291 293 295 297 297 298 298 301 303 304 304 304 305 304 305 303 298 298 298 300 302 305 307 309 310 312 310 288 295 305 305 306 306 305 306 306 306
284 288 284 284 282 282 286 288 287 290 290 290 289 289 288 288 291 295 294 297 299 299 299 300 303 306 303 303 303 304 306 306 304 302 300 300 302 306 308 308 309 311 313 311 307 305 286 298 296 305 304 306 306 305
290 288 285 285 284 287 289 292 292 290 287 288 289 287 287 288 292 292 291 293 296 299 298 296 297 298 299 299 299 303 303 302 302 304 304 310 313 314 313 314 313 314 313 311 309 307 306 304 305 304 304 303 303 300
288 285 285 283 287 292 293 289 288 287 287 287 287 289 290 289 286 288 290 291 293 293 290 294 295 294 296 297 297 296 289 294 294 295 298 304 310 311 314 315 315 314 313 311 311 309 307 306 305 305 304 302 303 304
287 287 287 286 288 289 291 289 290 289 289 288 289 289 288 288 284 289 296 293 290 289 291 292 294 295 294 294 294 295 293 295 291 286 286 285 285 290 309 312 311 310 308 307 309 309 308 307 305 304 304 304 303 301
Wind_Speed
6 6 6 6 6 6 6 6 8 7 7 8 9 6 7 6 5 5 2 4 5 5 10 12 8 10 8 6 7 6 8 7 5 4 4 7 6 7 8 12 14 16 12 13 9 13 12 5 5 2 11 16 17 17
7 7 7 7 7 7 6 6 7 7 7 9 9 9 9 7 5 6 5 3 1 4 11 18 20 22 21 19 12 5 8 6 3 5 4 3 7 8 13 14 11 8 5 9 9 11 20 15 12 14 15 17 17 17
9 9 8 8 5 6 7 8 8 7 7 8 9 9 9 6 7 6 4 3 4 6 14 9 6 4 12 17 15 10 7 5 4 5 4 4 8 8 9 10 14 15 14 11 16 14 17 21 16 12 9 14 16 16
9 9 10 8 7 8 8 8 8 7 8 9 9 9 9 9 9 9 6 3 3 4 7 1 5 7 6 9 13 20 15 3 5 5 4 5 6 6 8 12 15 15 16 15 20 22 17 14 17 17 17 18 15 17
11 11 10 9 8 7 6 6 7 8 9 10 11 10 9 9 8 5 7 6 6 4 7 10 18 1 1 8 14 15 16 14 8 5 4 6 6 8 11 13 12 8 11 7 12 21 20 22 23 27 24 17 12 12
11 11 11 10 10 8 7 8 8 9 10 11 11 8 9 6 6 6 4 5 2 4 4 6 7 5 4 7 10 12 11 10 9 3 4 5 11 5 5 9 13 7 11 14 9 13 18 18 16 9 13 12 12 14
12 11 12 11 10 7 7 7 6 8 8 9 8 7 8 8 6 5 6 4 5 4 3 6 5 5 4 6 7 7 11 6 5 4 6 8 5 4 5 12 13 13 13 17 13 12 10 6 9 12 13 12 16 16
10 9 8 5 5 7 7 7 8 9 10 10 10 11 11 10 11 8 10 13 5 2 3 5 5 5 1 4 3 5 3 4 5 4 2 5 2 4 5 7 12 13 16 13 12 12 12 11 11 11 11 13 14 13
7 7 9 9 8 8 9 7 9 10 11 10 13 15 9 5 4 1 7 3 5 4 3 4 5 5 1 5 3 3 5 5 4 5 4 1 3 5 5 11 11 15 12 14 16 15 13 12 11 12 11 12 11 11
13 11 10 11 9 9 10 9 10 11 10 11 7 4 2 3 5 5 6 3 3 4 4 5 8 10 6 4 4 2 4 3 3 4 3 3 0 5 9 12 14 15 15 15 16 16 17 15 12 11 11 9 9 11
12 11 9 8 12 11 11 5 9 6 9 2 2 2 2 6 4 3 3 5 5 5 6 5 7 7 2 4 3 1 4 1 3 3 3 1 2 4 12 14 13 13 13 13 14 16 14 11 11 11 10 12 10 10
2 4 5 8 8 9 6 6 5 6 2 5 5 5 3 4 5 5 4 5 5 4 5 3 4 4 3 3 4 3 3 3 2 3 1 2 1 11 14 15 16 14 15 14 14 15 15 13 9 8 11 12 11 8
7 8 10 11 6 5 6 6 5 6 6 4 4 4 4 4 5 7 7 5 4 3 3 4 3 5 5 4 4 3 3 1 3 1 2 3 10 12 13 13 15 15 14 12 12 12 11 11 9 9 11 11 11 7
8 5 4 5 8 7 6 7 7 4 5 3 4 5 6 6 6 4 5 4 3 2 3 4 5 3 4 5 2 4 0 3 3 3 5 6 12 12 14 13 13 15 13 12 11 11 12 13 12 11 11 10 9 9
5 5 5 7 7 6 7 8 10 5 2 3 3 5 6 6 3 3 6 2 3 5 5 5 4 4 4 4 1 3 3 3 3 4 5 7 12 12 13 13 13 11 11 11 11 11 11 12 12 12 11 10 9 9
6 6 6 2 5 4 3 1 5 4 1 3 5 6 6 6 6 3 5 4 2 5 6 4 4 4 3 2 3 1 3 3 2 3 6 7 10 11 12 12 9 8 10 11 10 10 10 11 12 13 12 13 11 10
6 3 7 6 4 3 5 1 1 4 5 4 6 8 9 9 7 5 3 4 2 5 4 3 4 2 1 2 2 1 3 6 4 4 5 8 9 11 11 9 7 7 10 11 11 11 11 11 11 12 14 13 12 12
5 5 7 5 4 1 3 3 2 5 7 7 8 8 6 6 8 7 5 5 5 4 3 3 4 4 3 1 4 5 5 4 3 4 5 8 9 9 9 7 6 7 8 9 9 9 11 12 11 10 12 12 11 12
3 3 6 5 1 1 2 3 3 5 7 6 6 7 7 7 8 8 7 6 5 5 4 4 6 6 6 0 4 5 4 4 4 5 5 6 7 9 9 7 4 6 7 8 9 7 7 10 9 10 9 9 9 10
5 3 5 7 4 1 3 2 3 4 5 4 5 8 7 7 6 5 6 7 7 7 7 6 7 7 4 1 2 3 3 2 4 5 7 7 7 9 8 7 6 5 4 5 6 7 7 7 8 8 9 9 10 11
9 5 8 5 3 3 2 3 4 4 6 5 6 6 7 7 8 9 9 8 9 11 10 10 10 9 9 5 3 3 3 3 4 6 7 8 9 9 7 6 6 3 4 4 5 6 5 7 7 7 8 9 9 9
3 6 3 6 4 5 4 4 5 4 4 6 9 8 8 8 8 8 6 9 11 11 12 11 10 10 10 13 11 10 7 6 8 7 8 6 7 7 7 6 6 3 4 5 5 5 6 7 7 6 7 7 6 9
3 4 3 3 4 5 3 4 5 4 4 4 3 4 5 4 3 2 5 7 9 9 8 10 13 14 13 12 10 10 9 7 7 7 6 6 7 7 6 5 4 2 2 4 3 5 5 2 4 5 6 7 8 8
1 3 4 5 6 3 4 5 4 3 3 4 4 4 4 2 1 4 8 8 5 4 5 6 6 7 8 11 9 9 8 7 7 6 6 7 7 6 3 5 2 2 4 3 2 3 4 5 3 5 6 7 8 9
4 5 4 5 4 4 5 4 5 5 5 5 4 5 3 2 3 4 7 4 1 4 2 3 5 6 7 7 8 9 10 7 6 6 5 5 6 6 5 4 2 2 3 3 3 2 3 4 4 6 7 7 8 10
5 5 5 4 4 5 4 4 4 3 3 3 4 3 1 3 4 5 2 5 5 2 2 5 3 6 6 6 6 6 7 6 5 6 6 6 6 6 6 4 3 7 4 2 2 3 4 3 4 3 5 6 1 6
4 5 5 4 3 3 4 5 4 4 4 4 3 3 3 4 3 2 2 2 2 2 3 3 6 4 4 5 4 3 3 4 5 5 5 5 6 5 6 5 0 5 4 3 3 4 4 4 4 3 3 3 4 5
4 4 4 3 3 3 4 3 4 4 3 2 3 3 3 5 3 3 2 3 5 6 5 5 4 6 4 3 3 3 4 4 5 6 7 7 7 5 6 4 1 3 2 2 2 4 4 4 4 4 3 2 4 3
5 3 3 7 5 4 4 4 3 2 1 2 3 3 2 3 3 3 6 8 7 5 4 3 6 5 3 3 3 4 4 5 6 7 9 6 5 5 5 5 4 4 4 5 3 4 2 2 3 3 3 3 3 4
3 1 3 4 3 4 3 4 4 4 3 2 2 2 1 2 3 5 7 8 6 5 4 3 1 1 2 3 4 3 2 2 4 6 6 3 2 2 2 3 4 4 3 4 7 7 2 5 4 5 5 4 4 4
1 1 3 3 4 4 4 6 6 4 2 2 2 2 2 1 1 7 10 10 7 6 6 7 7 7 6 6 6 1 4 5 6 7 7 6 3 2 2 2 3 3 3 4 6 7 8 6 5 5 4 4 2 5
2 3 3 3 3 3 4 3 2 2 2 1 2 1 1 2 4 6 9 10 9 9 9 8 8 8 7 5 5 5 4 5 7 7 8 6 5 5 3 3 2 2 3 3 3 3 4 4 3 4 4 4 3 4
2 2 3 3 3 3 2 2 2 2 3 3 4 4 4 4 6 3 2 6 7 7 6 6 7 7 8 9 8 6 5 5 6 5 6 7 7 7 4 5 5 6 8 7 7 7 5 9 9 6 6 8 8 8
Wind_Direction
256 260 266 270 275 283 287 289 308 315 319 320 322 312 311 310 319 286 324 228 297 282 293 273 259 262 264 242 280 32 271 178 230 282 288 314 288 332 296 296 289 290 290 288 304 292 279 203 285 333 297 305 298 296
255 256 258 266 270 271 286 295 295 297 304 308 308 296 292 292 292 296 285 80 245 248 284 298 282 272 263 264 282 263 308 307 351 250 243 299 275 290 290 286 294 284 266 292 284 300 307 293 264 279 278 285 296 297
257 259 259 261 263 275 278 277 281 286 295 297 303 311 314 304 292 279 304 177 215 267 285 250 257 259 221 233 232 247 222 244 227 325 315 272 258 282 273 297 309 299 309 293 291 274 302 312 300 291 316 309 301 292
258 259 262 254 263 270 275 275 279 287 295 296 294 295 293 293 289 285 266 271 273 292 281 16 168 233 227 227 225 217 255 207 292 273 268 258 262 287 281 294 291 292 304 285 284 278 299 302 312 323 321 308 296 296
251 251 249 248 256 266 280 280 281 285 285 284 279 276 294 304 314 291 272 261 238 234 314 308 297 266 31 214 221 217 225 240 256 244 240 256 264 269 264 268 272 293 306 293 289 320 307 302 317 315 308 317 322 311
250 255 242 243 247 258 273 279 282 285 286 287 293 291 293 305 318 284 255 133 197 209 270 290 359 277 216 217 221 216 216 222 225 213 236 246 254 271 275 274 291 347 328 318 295 295 290 288 295 313 311 298 289 303
248 251 242 244 250 251 272 283 295 305 316 314 315 305 291 286 274 249 341 58 159 185 263 283 272 150 258 248 209 209 199 201 214 227 233 247 245 212 262 276 326 330 302 288 292 294 309 298 294 297 317 333 320 307
256 255 250 258 255 263 273 287 298 304 306 302 300 295 289 284 272 248 235 198 169 244 229 273 277 246 154 263 267 150 175 177 220 242 255 242 205 209 260 321 308 301 300 300 304 314 304 321 319 324 338 333 323 314
250 241 242 242 256 276 281 284 296 303 306 303 299 296 273 232 226 70 17 164 191 229 246 214 285 333 85 265 284 198 161 208 185 220 224 268 182 209 263 290 293 297 294 292 305 304 310 318 322 333 335 338 314 308
248 242 256 235 238 253 262 273 292 301 299 305 275 237 241 56 344 333 169 209 166 189 228 253 267 264 311 1 281 282 188 237 232 185 152 230 17 270 297 304 294 299 306 308 309 320 332 327 325 317 316 325 302 300
242 232 242 257 236 252 274 255 282 305 257 242 252 248 39 178 229 187 233 214 165 215 202 220 259 266 294 254 288 286 308 270 251 95 263 302 148 303 317 312 324 326 328 332 335 338 329 318 307 308 299 301 299 306
28 229 247 272 252 246 213 250 280 249 294 3 317 288 275 245 226 244 216 169 221 254 155 212 221 216 253 225 243 219 245 217 354 288 335 338 22 318 312 329 325 332 337 345 352 349 343 336 327 309 297 312 333 323
236 245 265 247 239 227 242 252 257 275 282 247 213 237 207 191 234 233 206 202 195 176 199 206 245 212 197 203 248 268 233 352 264 26 360 7 322 323 331 326 329 340 350 351 359 359 1 359 354 342 339 342 343 349
241 251 260 198 218 240 248 252 255 239 243 240 234 237 237 195 233 234 284 0 47 233 304 301 285 250 206 213 219 263 62 255 48 346 34 355 333 329 329 333 336 345 350 356 354 358 1 360 357 3 359 357 4 340
228 239 248 243 242 249 266 268 242 205 211 255 246 243 229 264 257 326 293 240 227 286 300 300 252 249 222 250 40 276 151 113 42 35 353 327 330 324 331 342 350 349 0 358 356 358 356 360 3 6 11 8 18 360
236 251 236 256 230 226 214 146 158 194 203 252 231 265 256 261 254 204 266 251 315 319 288 239 265 244 230 165 232 258 71 86 80 31 4 347 339 340 347 351 359 3 10 13 10 8 5 11 11 15 22 20 17 14
211 244 136 146 138 162 164 151 241 187 220 216 226 226 267 289 286 283 264 276 328 290 292 310 264 337 292 248 169 157 90 93 68 31 0 358 343 347 349 360 5 15 20 21 19 21 16 18 14 20 21 18 21 18
238 137 164 169 229 179 201 194 216 219 230 234 248 261 232 256 285 278 262 256 261 258 256 290 321 262 260 226 132 126 124 103 63 359 347 354 351 354 0 5 5 11 21 24 23 26 26 16 20 21 19 18 25 16
212 182 155 160 270 277 242 191 257 257 238 259 262 264 262 268 263 266 268 264 249 270 279 229 247 246 246 90 130 120 115 63 17 350 340 351 7 359 2 0 348 6 15 27 18 24 32 31 23 18 16 14 23 27
193 229 194 184 198 220 258 206 190 255 262 260 254 262 262 262 267 249 239 226 207 208 211 225 242 260 286 22 83 71 71 14 358 345 342 351 358 353 1 345 359 332 340 6 57 15 31 31 26 31 24 23 19 27
179 181 210 189 206 209 284 293 244 245 302 282 301 288 274 264 242 247 235 223 215 225 236 237 245 249 262 257 252 291 283 309 339 334 322 318 340 315 335 346 331 20 349 21 21 56 36 30 19 24 31 26 32 19
116 175 162 191 221 179 254 226 270 356 260 268 287 259 263 269 256 239 224 234 225 235 234 243 239 238 239 238 250 245 267 288 290 299 268 264 291 323 336 336 334 15 44 34 27 37 45 43 1 33 29 27 37 48
164 199 174 169 203 211 255 168 238 214 253 257 259 261 246 237 237 110 238 227 233 242 240 236 235 241 248 248 248 247 252 260 271 271 277 284 294 298 309 316 6 20 93 74 31 44 61 358 62 2 44 35 36 38
160 194 212 201 210 243 182 214 211 248 243 248 246 253 265 254 230 249 261 257 247 216 217 228 235 228 220 228 241 241 233 232 243 253 263 268 273 286 316 313 29 91 47 77 80 80 76 75 313 44 39 48 45 47
227 206 226 228 220 253 238 228 209 214 245 233 252 254 261 216 238 248 265 267 203 230 240 230 229 218 218 204 202 207 209 229 226 247 253 249 268 280 260 239 175 145 153 150 159 144 93 80 62 48 50 44 51 51
229 192 210 214 205 216 241 266 241 268 306 269 254 271 234 239 237 255 330 27 14 22 315 308 241 211 206 222 189 191 192 195 229 249 259 261 259 276 284 249 216 148 177 237 139 161 142 110 85 75 102 113 235 55
252 233 198 233 273 273 266 268 270 264 251 249 248 269 247 235 241 88 328 285 274 336 307 289 301 274 238 186 194 191 159 203 235 263 301 291 279 287 272 260 228 72 146 179 172 173 153 156 145 138 116 101 78 65
260 287 245 239 241 235 256 263 260 249 273 305 293 258 286 347 354 2 297 308 298 303 291 273 254 269 257 207 203 206 222 226 236 251 257 250 246 244 224 237 174 80 327 201 176 162 164 154 151 163 167 160 133 128
246 244 274 260 241 232 236 224 243 237 261 271 288 293 347 357 311 293 305 298 286 268 257 241 197 197 195 224 235 239 246 249 249 234 236 250 178 190 202 210 204 207 203 175 136 5 137 173 178 176 175 202 178 169
259 203 269 280 254 242 219 211 240 240 220 222 260 293 255 256 280 330 345 358 18 45 40 7 224 226 193 194 155 146 60 345 311 302 293 219 185 78 161 202 227 230 199 215 179 158 106 196 163 207 220 207 211 200
336 251 260 254 262 261 259 260 254 256 220 224 199 245 281 291 308 10 8 356 2 30 56 65 59 45 45 37 12 325 123 51 355 344 344 318 355 354 324 283 252 252 231 234 228 209 192 195 215 215 222 246 313 285
213 235 277 287 288 347 334 348 327 353 9 62 48 348 232 77 43 15 360 352 13 33 27 41 49 46 47 56 56 60 31 9 1 344 343 341 349 348 339 337 333 323 259 232 238 252 266 276 299 264 133 146 131 90
244 236 263 270 276 303 341 322 347 42 43 45 43 34 46 44 49 322 347 24 5 355 5 22 33 41 40 42 31 36 33 52 57 27 15 8 350 322 323 62 58 61 59 54 66 64 74 96 88 87 87 94 94 93